Brainerd, MN

11:01 PM CDT on October 23, 2017 (GMT -0500)
Brainerd-Crow Wing County Regional

Weather History for KBRD - December, 2013

Change the Weather History Date:

Saturday, December 21, 2013

  Actual Average Record
Temperature  
Mean Temperature 10 °F -  
Max Temperature 14 °F 18 °F 47 °F (1956)
Min Temperature 5 °F -3 °F -35 °F (1983)
Degree Days  
Heating Degree Days 56    
Moisture  
Dew Point 5 °F    
Average Humidity 80    
Maximum Humidity 92    
Minimum Humidity 73    
Precipitation  
Precipitation 0.00 in - - ()
Sea Level Pressure  
Sea Level Pressure 29.98 in    
Wind  
Wind Speed 2 mph (North)    
Max Wind Speed 10 mph    
Max Gust Speed -    
Visibility 5 miles    
Events Snow    
Averages and records for this station are not official NWS values.
T = Trace of Precipitation, MM = Missing Value Source: NWS Daily Summary

Daily Weather History Graph

Daily Weather History Graph

Search for Another Location

Airport or City:

Trip Planner

Search our weather history database for the weather conditions in past years. The results will help you decide how hot, cold, wet, or windy it might be!

Date:

Astronomy

Dec. 21, 2013 Rise Set
Actual Time 7:57 AM CST 4:32 PM CST
Civil Twilight 7:22 AM CST 5:07 PM CST
Nautical Twilight 6:43 AM CST 5:45 PM CST
Astronomical Twilight 6:07 AM CST 6:22 PM CST
Moon 9:03 PM CST (12/21) 10:11 AM CST (12/21)
Length of Visible Light 9h 45m
Length of Day
8h 35m
Waning Gibbous, 84% of the Moon is Illuminated
Dec 21
Waning Gibbous
Dec 25
Last Quarter
Jan 1
New
Jan 7
First Quarter
Jan 15
Full

Hourly Weather History & Observations

Time (CST) Temp. Windchill Dew Point Humidity Pressure Visibility Wind Dir Wind Speed Gust Speed Precip Events Conditions
12:42 AM 6.8 °F - 3.2 °F 85% 29.82 in 8.0 mi Calm Calm - N/A   Overcast
12:53 AM 8.1 °F - 3.0 °F 80% 29.91 in 7.0 mi Calm Calm - N/A   Overcast
1:21 AM 8.6 °F - 3.2 °F 79% 29.82 in 7.0 mi Calm Calm - N/A   Overcast
1:53 AM 9.0 °F - 5.0 °F 84% 29.91 in 6.0 mi Calm Calm - N/A   Overcast
2:53 AM 9.0 °F - 5.0 °F 84% 29.94 in 6.0 mi Calm Calm - N/A   Overcast
3:04 AM 8.6 °F - 6.8 °F 92% 29.86 in 6.0 mi Calm Calm - N/A   Overcast
3:53 AM 9.0 °F - 3.9 °F 80% 29.94 in 4.0 mi Calm Calm - 0.00 in Snow Light Snow
4:53 AM 9.0 °F - 5.0 °F 84% 29.94 in 5.0 mi Calm Calm - 0.00 in   Overcast
5:53 AM 8.1 °F - 3.9 °F 83% 29.94 in 5.0 mi Calm Calm - N/A   Overcast
6:53 AM 5.0 °F -4.1 °F 1.0 °F 84% 29.96 in 6.0 mi NNW 4.6 mph - N/A   Overcast
7:53 AM 5.0 °F - -0.0 °F 80% 29.99 in 7.0 mi Calm Calm - N/A   Overcast
8:34 AM 6.8 °F -0.1 °F 3.2 °F 85% 29.89 in 2.0 mi NNE 3.5 mph - N/A   Overcast
8:37 AM 8.6 °F 0.1 °F 3.2 °F 79% 29.90 in 1.2 mi NNE 4.6 mph - N/A   Overcast
8:45 AM 8.6 °F 0.1 °F 3.2 °F 79% 29.91 in 2.0 mi NE 4.6 mph - N/A   Overcast
8:53 AM 9.0 °F 2.4 °F 5.0 °F 84% 30.01 in 3.0 mi NE 3.5 mph - N/A   Overcast
9:02 AM 8.6 °F 0.1 °F 5.0 °F 85% 29.91 in 2.5 mi ENE 4.6 mph - 0.00 in Snow Light Snow
9:25 AM 10.4 °F - 6.8 °F 85% 29.93 in 1.8 mi Calm Calm - 0.00 in Snow Light Snow
9:32 AM 10.4 °F 2.2 °F 6.8 °F 85% 29.93 in 2.0 mi NE 4.6 mph - 0.00 in Snow Light Snow
9:53 AM 10.9 °F - 6.1 °F 81% 30.04 in 2.0 mi Calm Calm - 0.00 in Snow Light Snow
10:05 AM 10.4 °F - 6.8 °F 85% 29.95 in 1.2 mi Calm Calm - 0.00 in Snow Light Snow
10:25 AM 10.4 °F - 6.8 °F 85% 29.95 in 1.8 mi Calm Calm - 0.00 in Snow Light Snow
10:28 AM 10.4 °F - 6.8 °F 85% 29.95 in 2.0 mi Calm Calm - 0.00 in Snow Light Snow
10:53 AM 10.9 °F - 7.0 °F 84% 30.03 in 2.5 mi Calm Calm - 0.00 in Snow Light Snow
11:13 AM 12.2 °F 6.1 °F 6.8 °F 79% 29.94 in 6.0 mi North 3.5 mph - 0.00 in   Haze
11:53 AM 12.0 °F - 7.0 °F 80% 30.04 in 6.0 mi Calm Calm - 0.00 in   Haze
12:53 PM 12.9 °F 5.2 °F 7.0 °F 77% 30.01 in 4.0 mi North 4.6 mph - 0.00 in Snow Light Snow
1:53 PM 14.0 °F 6.5 °F 7.0 °F 74% 30.04 in 5.0 mi North 4.6 mph - 0.00 in   Haze
2:44 PM 14.0 °F 5.1 °F 6.8 °F 73% 29.97 in 5.0 mi NW 5.8 mph - N/A   Haze
2:53 PM 14.0 °F 6.5 °F 7.0 °F 74% 30.05 in 4.0 mi NNW 4.6 mph - N/A   Haze
3:53 PM 12.9 °F 3.8 °F 6.1 °F 74% 30.07 in 6.0 mi North 5.8 mph - N/A   Haze
4:53 PM 12.9 °F -0.2 °F 6.1 °F 74% 30.08 in 10.0 mi North 10.4 mph - N/A   Mostly Cloudy
5:53 PM 12.0 °F 2.7 °F 5.0 °F 73% 30.09 in 10.0 mi North 5.8 mph - N/A   Overcast
6:53 PM 12.0 °F 2.7 °F 6.1 °F 77% 30.09 in 10.0 mi NNE 5.8 mph - N/A   Overcast
7:53 PM 10.9 °F 1.4 °F 5.0 °F 77% 30.12 in 10.0 mi NW 5.8 mph - N/A   Overcast
8:53 PM 10.9 °F 0.2 °F 5.0 °F 77% 30.10 in 10.0 mi North 6.9 mph - N/A   Overcast
9:53 PM 10.9 °F -0.8 °F 5.0 °F 77% 30.07 in 10.0 mi North 8.1 mph - N/A   Overcast
10:53 PM 10.9 °F -0.8 °F 5.0 °F 77% 30.07 in 10.0 mi North 8.1 mph - N/A   Overcast
11:53 PM 12.0 °F 0.5 °F 6.1 °F 77% 30.07 in 10.0 mi North 8.1 mph - N/A   Overcast